Location: Madison
(43.0730°N, 89.3819°W)
Time: 00:54:49
(UTC-05:00)

OTV 5 (USA 277) - Visible Passes

Search period start: 18 October 2019 00:00
Search period end: 28 October 2019 00:00
Orbit: 310 x 324 km, 54.5° (Epoch: 08 October)

Date Brightness Start Highest point End Pass type
(mag) Time Alt. Az. Time Alt. Az. Time Alt. Az.
18 Oct ? 05:39:38 27° N 05:40:18 32° NNE 05:42:49 10° E visible
19 Oct ? 05:54:10 42° NW 05:54:57 82° NE 05:57:40 10° SE visible
20 Oct ? 06:08:49 29° WSW 06:09:26 32° SW 06:11:55 10° SSE visible
21 Oct ? 06:23:36 13° SW 06:23:46 13° SW 06:25:03 10° SSW visible
27 Oct ? 19:26:29 10° SSW 19:27:52 21° S 19:27:52 21° S visible
